CRC

Crooked River Challenge - 250 Mile Race

Station: 250 Miles - A Race

Distance: 250.245 Miles    

Release: 11-Sep-2019 07:05

Weather Release: Clear    Arrival: Clear

Wind at Release: Calm     Wind at Arrival: 5 NW

Temp at Release: 35°    Temp at Arrival: 70°

Lofts: 140

Birds: 500

Clocked: 473

Good Luck to Everyone!
Drops Pos Breeder Pigeon Name Color Sex Ent Arrival Speed To Win Elg PdOpB
1000 1 Greek Connection - SC 1231-AU19-GRK CATERPILAR BB C 1 12:12:09.13 1433.918 00:00:00 Yes
500 2 Zheng Family Loft - NY 0989-AU19-ZFL Lamborghini 989 DC H 1 12:12:12.30 1433.671 00:00:03 Yes
250 3 Wise Loft - IL 4120-AU19-CHIC BB H 1 12:12:22.90 1432.847 00:00:14 Yes
4 A P C Loft - TX 19129-AU19-APC BC H 1 12:12:24.05 1432.757 00:00:15 Yes
5 Carter Mayotte - NE 0051-AU19-CART Ellens Choice BC C 1 12:12:32.81 1432.077 00:00:24 Yes
6 Guo Fu Loft - DC 11089-AU19-AA BBWF H 1 12:12:33.58 1432.018 00:00:24 Yes
7 Da-Dong - WI 1634-AU19-RAC 7020-845 BB H 1 12:12:34.72 1431.930 00:00:26 Yes
8 Linda Loft - PA 0612-IF19-LU 1048--Lu269 BBSP C 1 12:12:35.00 1431.907 00:00:26 Yes
9 Steven Loft - TX 0015-AU19-YE BBWF C 1 12:12:36.04 1431.827 00:00:27 Yes
10 Smith R.P.L. - UT 4538-AU19-SMIT BB H 1 12:12:45.66 1431.081 00:00:37 Yes
11 Amer Loft - GA 0024-IF19-AFL 999 x 344 BBWF H 1 12:12:47.16 1430.965 00:00:38 Yes
12 Great Wall - VA 0036-AU19-CHAN BB H 1 12:12:47.35 1430.950 00:00:38 Yes
13 Great Wall - VA 0002-AU19-CHAN BC H 2 12:12:51.93 1430.596 00:00:43 Yes
14 Dehesa Valley Classic - CA 19018-AU19-PUEB BC H 1 12:13:13.08 1428.959 00:01:04 Yes
15 ** J-Ireneo Loft ** - CA 0415-AU19-JIR DC H 1 12:14:09.99 1424.575 00:02:01 Yes
16 Andy Skwiat - IN 0015-AU19-ANDY 12 x 688 BB H 1 12:14:17.22 1424.020 00:02:08 Yes
17 Smith R.P.L. - UT 4556-AU19-SMIT BB H 2 12:14:17.79 1423.976 00:02:09 Yes
18 Zhengloft - FL 19157-IF19-ZHEN DC H 1 12:14:18.72 1423.905 00:02:10 Yes
19 Sierra Ranch - CA 0913-AU19-SIER River Mist BB H 1 12:14:19.28 1423.862 00:02:10 Yes
20 - Blue Giligit Loft - - CA 3753-AU19-JEDD AVERY MEGAN PICK BIRD BBWF C 1 12:14:19.56 1423.840 00:02:10 Yes
21 Cuevas Classic - TX 3907-AU19-DALL Dash For Cash 💰 💵 BB H 1 12:14:21.13 1423.720 00:02:12 Yes
22 Marengo Creek Farms - AL 3292-AU19-MCF BB H 1 12:14:22.83 1423.590 00:02:14 Yes
23 A F L - GA 0036-IF19-AFL 697 x 849 BB C 1 12:14:24.87 1423.434 00:02:16 Yes
24 Baldwin & Tilson - NC 9029-AU19-TENT 825(570)-1013(1312) BB H 1 12:14:24.89 1423.432 00:02:16 Yes
25 Shi Loft - PA 7031-IF19-ERIE BB H 1 12:14:25.71 1423.369 00:02:17 Yes
26 Keyways - OR 3195-AU19-ARPU 1906 x 1082 BC C 1 12:14:26.84 1423.282 00:02:18 Yes
27 Marengo Creek Farms - AL 3296-AU19-MCF BB C 2 12:14:27.87 1423.204 00:02:19 Yes
28 Filipino-American Pigeon Fanciers Alliance - IL 0168-AU19-FAMP BB C 1 12:14:29.09 1423.109 00:02:20 Yes
29 Amer Loft - GA 0109-IF19-AFL 233 x 64 BB H 2 12:14:30.11 1423.031 00:02:21 Yes
30 Marocik Loft - NY 1306-IF19-PERT BB H 1 12:14:30.13 1423.030 00:02:21 Yes
31 Columba Loft - GA 9193-AU19-LYNC 2135 X 15169 BB H 1 12:14:30.20 1423.024 00:02:21 Yes
32 Lin Family Loft - GA 2045-AU19-LIN 林-Lin1158 X 8072 BB H 1 12:14:31.69 1422.911 00:02:23 Yes
33 Kolvenbag & Son - PA 1331-IF19-KOLV BC H 1 12:16:48.31 1412.520 00:04:39 Yes
34 Amer Loft - GA 0098-IF19-AFL 13 x 209 BB C 3 12:16:52.07 1412.236 00:04:43 Yes
35 Amer Loft - GA 0212-IF19-AFL 462 x 204 BB C 4 12:16:54.07 1412.085 00:04:45 Yes
36 Tian Loft - FL 15689-AU19-ARPU BB C 1 12:16:56.08 1411.934 00:04:47 Yes
37 Thunder Birds/Rodriguez Breeding Loft - TX 19058-AU19-WIN Amber Alert BB H 1 12:17:27.97 1409.531 00:05:19 Yes
38 D B J Loft - FL 1736-AU19-DBJ BCSP H 1 12:17:43.12 1408.393 00:05:34 Yes
39 Wolf Den & Family Loft - IL 0055-AU19-WOLF BC H 1 12:17:44.17 1408.315 00:05:35 Yes
40 Ganus Family Loft - IN 0741-AU19-GFL CRAZY HORSE BB C 1 12:17:46.38 1408.149 00:05:37 Yes
41 G & L Loft - OR 0506-AU19-WPC BC H 1 12:17:47.23 1408.085 00:05:38 Yes
42 7 Cha Brothers Loft - MN 0360-AU19-UNIT The One Jr. x Quick Feet BC H 1 12:17:48.80 1407.967 00:05:40 Yes
43 Greek Connection - SC 1246-AU19-GRK KRONOS BB C 2 12:17:55.77 1407.445 00:05:47 Yes
44 Andy Skwiat - IN 0009-AU19-ANDY 83 x 56 BBWF C 2 12:17:58.36 1407.250 00:05:49 Yes
45 A P C Loft - TX 19052-AU19-APC BB H 2 12:17:58.65 1407.229 00:05:50 Yes
46 Smith R.P.L. - UT 4522-AU19-SMIT BC H 3 12:18:00.04 1407.124 00:05:51 Yes
47 Baldwin & Tilson - NC 9091-AU19-TENT 4135-6257 BBWF C 2 12:18:00.42 1407.096 00:05:51 Yes
48 Balikbayan Express - WA 0007-AU19-CEYX BBSP H 1 12:18:03.64 1406.854 00:05:55 Yes
49 Da-Dong - WI 1621-AU19-RAC 337-4322 BB H 2 12:18:11.79 1406.244 00:06:03 Yes
50 Genesis Syndicate Loft - AZ 0719-AU19-GEN BB H 1 12:19:50.28 1398.912 00:07:41 Yes
51 Rueter Family Loft - OR 5329-AU19-CORP BB H 1 12:19:57.92 1398.347 00:07:49 Yes
52 A F L - GA 0038-IF19-AFL 176 x 93 BBP C 2 12:20:21.20 1396.626 00:08:12 Yes
53 Ganus Family Loft - IN 0362-AU19-GFL I LIKE MY CHANCE TO WIN BB C 2 12:21:08.30 1393.158 00:08:59 Yes
54 7 Cha Brothers Loft - MN 0363-AU19-UNIT Turkkon x Bulldozer BB H 2 12:21:57.44 1389.559 00:09:48 Yes
55 Genesis Syndicate Loft - AZ 0702-AU19-GEN BBSP C 2 12:21:58.59 1389.475 00:09:49 Yes
56 Kessler Family Loft - OR 0003-AU19-NRK Slick Nick BB H 1 12:21:58.88 1389.454 00:09:50 Yes
57 Baldwin & Tilson - NC 9100-AU19-TENT 348-8140(348) BBWF C 3 12:21:59.61 1389.400 00:09:50 Yes
58 Cherokee Loft - MI 0514-AU19-CHER BB C 1 12:22:00.99 1389.299 00:09:52 Yes
59 Y Mtn Loft - TN 26711-AU19-YMTN BBWF H 1 12:22:02.10 1389.218 00:09:53 Yes
60 Powerstroke Loft - UT 0516-AU19-PS BC H 1 12:22:03.13 1389.144 00:09:54 Yes
61 A F L - GA 0132-IF19-AFL 697 x 849 BBWF H 3 12:22:03.15 1389.141 00:09:54 Yes
62 Duane Gragg - CA 0921-AU19-KEY BB H 1 12:22:03.29 1389.131 00:09:54 Yes
63 Y Mtn Loft - TN 26702-AU19-YMTN BC C 2 12:22:03.76 1389.098 00:09:55 Yes
64 P N W Challenge - ID 0056-AU19-PNWC “PAIR #31” BB H 1 12:22:04.78 1389.023 00:09:56 Yes
65 Roger Teeters - WA 4618-AU19-LKC BC H 1 12:22:04.80 1389.021 00:09:56 Yes
66 Irishsyndicatelofts - AZ 0414-IF19-IRIS BC C 1 12:22:05.67 1388.958 00:09:57 Yes
67 Dekeratry Loft - TX 9428-AU19-HOT BBWF C 1 12:22:06.71 1388.882 00:09:58 Yes
68 A P C Loft - TX 19043-AU19-APC BB H 3 12:22:06.73 1388.880 00:09:58 Yes
69 Tex-Mex Loft - TX 0052-AU19-TXMX Dillinger BB C 1 12:22:06.93 1388.866 00:09:58 Yes
70 P J Loft - MD 11486-AU19-AA BB C 1 12:22:07.82 1388.801 00:09:59 Yes
71 Wolf Den & Family Loft - IL 0007-AU19-WOLF GZ H 2 12:22:08.20 1388.774 00:09:59 Yes
72 Andy Skwiat - IN 0057-AU19-ANDY 4999 x 115 BC C 3 12:22:08.38 1388.760 00:09:59 Yes
73 Eastern Pearl Loft - VA 0621-AU19-EPL 🈚️量621 BB H 1 12:22:09.41 1388.685 00:10:00 Yes
74 Yendez Loft - TX 0306-AU19-YEND YENDEZ 306 BB H 1 12:22:09.45 1388.682 00:10:00 Yes
75 Ken Family Loft - FL 0011-AU19-XKL BB H 1 12:22:10.67 1388.593 00:10:02 Yes
76 A-Lo Loft/Nemelka - UT 9020-AU19-NRPL ☯️Brees BB H 1 12:22:11.72 1388.517 00:10:03 Yes
77 S F L - WV 0077-AU19-SFL Pair 6 BBSP H 1 12:22:11.73 1388.515 00:10:03 Yes
78 Baldwin & Tilson - NC 9052-AU19-TENT 1148-8036 BB H 4 12:22:12.56 1388.455 00:10:03 Yes
79 Portland Loft - OR 0510-AU19-JEDD BB C 1 12:22:15.58 1388.234 00:10:06 Yes
80 A P C Loft - TX 19054-AU19-APC BB C 4 12:22:15.63 1388.231 00:10:07 Yes
81 Carini / Codd - OR 0915-AU19-CARI BCWF H 1 12:22:15.66 1388.229 00:10:07 Yes
82 Emmalyn & Carelyn Loft - CA 0011-AU19-CEYX Ceyx 11 BBWF H 1 12:22:16.27 1388.185 00:10:07 Yes
83 Sunshine Loft 2 - SC 0134-AU19-PAK B U L L E T -2 BB H 1 12:22:17.57 1388.090 00:10:08 Yes
84 Amer Loft - GA 0135-IF19-AFL 888 x 439 BB H 5 12:22:18.78 1388.002 00:10:10 Yes
85 M & Y Connection - MI 0026-AU19-MY 6026 x 79 BB C 1 12:22:19.80 1387.927 00:10:11 Yes
86 Sooner Challenge - OK 8542-AU19-TIPC 16521 X 83 BB H 1 12:22:30.62 1387.138 00:10:22 Yes
87 A Brother Loft - AL 53808-AU19-ARPU BC H 1 12:22:31.94 1387.042 00:10:23 Yes
88 Hmoob__aviary - NC 9121-AU19-CV Peach BB H 1 12:22:45.78 1386.036 00:10:37 Yes
89 Da-Dong - WI 1624-AU19-RAC 80-364 BB H 3 12:22:59.13 1385.066 00:10:50 Yes
90 A-Lo Loft/Nemelka - UT 2883-AU19-FOYS ☯️Gangstaoflovex7010 DC H 2 12:23:00.46 1384.969 00:10:51 Yes
91 Fanway Family Loft - NS 19138-CU19-CNRP BB H 1 12:23:01.96 1384.861 00:10:53 Yes
92 A-Lo Loft/Nemelka - UT 2888-AU19-FOYS ☯️Gangstaoflovex7010 BB H 3 12:23:02.24 1384.840 00:10:53 Yes
93 Sam Haslem - UT 0058-AU19-SAM BB C 1 12:23:03.29 1384.764 00:10:54 Yes
94 A F L - GA 0048-IF19-AFL 176 x 93 BB H 4 12:23:04.35 1384.687 00:10:55 Yes
95 Smith R.P.L. - UT 4525-AU19-SMIT BB C 4 12:23:04.41 1384.682 00:10:55 Yes
96 Sam Haslem - UT 0018-AU19-SAM BBWF C 2 12:23:05.71 1384.589 00:10:57 Yes
97 Carter Mayotte - NE 0047-AU19-CART Omaha Omaha BBWF C 2 12:23:07.01 1384.494 00:10:58 Yes
98 Keyways - OR 3193-AU19-ARPU 1906 X 1082 BC C 2 12:23:08.04 1384.420 00:10:59 Yes
99 Powerstroke Loft - UT 0520-AU19-PS BB H 2 12:23:08.06 1384.418 00:10:59 Yes
100 Yendez Loft - TX 0314-AU19-YEND YENDEZ 314 BBWF C 2 12:23:08.09 1384.415 00:10:59 Yes

There are 477 bird records

Note: These Race Results are unofficial and subject to change until verified by the Race Committee and declared final.